EUTELSAT 65 WEST A

Last updated on Sun Oct 06 2024 00:02:40 GMT+0000 (Coordinated Universal Time)

1 41382U 16014A 24279.45644542 -.00000266 00000+0 00000+0 0 9991 2 41382 0.0689 324.6194 0002113 231.2011 277.9456 1.00271172 31329
UTC large
Height (km)
Speed (km/s)
/
Latitude / Longitude
Inclination (degrees)
Orbital Period (minutes)
Azimuth
Elevation
Range (km)
Doppler Factor

Next 0 passes for location: London (51.5072 / 0.1276)

Sorry there are no passes over London.